Wind_Speed
81 82 78 76 75 74 77 76 77 75 74 79 81 79 77 83 81 82 83 83 86 89 86 88 87 90 85 85 89 80 82 78 86 87 87 72 61 58 50 43 38 35 33
82 83 81 80 80 78 79 78 78 80 79 82 80 79 81 84 83 82 86 88 86 87 88 89 92 88 87 86 85 81 83 85 86 82 74 60 52 47 44 40 37 36 33
83 84 84 85 85 83 81 80 80 74 77 82 81 81 84 82 84 85 83 85 89 88 88 90 91 88 88 83 78 80 85 85 78 75 59 51 46 44 40 36 35 34 33
74 77 82 88 85 84 83 77 79 76 81 81 84 85 87 85 86 85 88 90 90 91 89 95 87 85 81 78 79 85 83 75 78 60 51 43 43 40 35 33 34 33 33
76 73 74 81 84 80 80 82 78 83 87 86 88 86 89 88 88 89 93 89 90 90 93 83 79 78 73 74 77 79 73 71 60 50 42 37 38 34 31 29 29 27 27
72 69 67 71 76 73 79 83 86 84 86 86 89 89 87 87 90 93 88 85 90 88 77 78 71 70 72 77 72 69 64 58 51 42 38 35 29 28 28 31 29 26 21
71 79 85 87 84 84 84 86 80 81 80 90 83 81 87 85 89 85 84 87 78 76 69 68 74 74 77 69 65 58 58 52 42 37 34 33 28 27 25 25 25 24 22
75 79 79 83 84 79 81 78 77 86 81 77 84 82 81 78 81 81 84 70 65 67 73 76 75 76 70 60 55 52 49 44 39 36 32 34 32 32 29 25 23 22 21
84 80 82 82 76 74 72 65 75 76 79 71 77 69 75 80 84 83 72 70 71 73 73 70 72 72 61 54 51 45 42 41 40 38 38 38 34 31 31 29 27 27 26
46 56 62 58 61 62 64 66 66 61 71 72 71 76 75 75 74 66 74 74 76 75 75 70 71 66 53 48 45 42 38 39 41 41 41 39 37 36 33 33 33 33 32
67 63 63 72 76 75 73 72 68 66 64 68 72 76 70 69 71 76 81 78 77 73 71 70 67 57 48 43 40 38 38 38 41 44 43 41 41 39 37 37 37 38 37
65 68 68 73 76 77 70 67 66 62 63 72 72 73 74 78 76 82 78 75 68 68 66 60 55 55 48 43 41 43 41 38 38 39 44 47 48 45 42 42 42 41 40
74 75 74 74 72 73 62 63 64 64 65 69 74 80 80 80 76 71 62 61 60 67 64 64 58 56 54 52 48 43 40 40 43 43 43 48 52 55 51 48 47 46 46
69 70 71 70 59 58 58 54 61 66 71 72 74 79 82 66 47 51 54 60 63 68 64 60 57 55 58 55 52 51 46 42 43 45 47 54 56 57 58 57 53 51 51
68 66 62 63 63 63 65 65 64 69 73 73 77 72 65 57 57 54 56 68 71 67 67 65 66 68 60 59 66 64 70 65 60 58 53 53 58 59 59 61 61 59 57
55 61 63 66 70 72 71 73 72 73 70 74 77 76 70 69 67 66 70 70 74 72 72 71 75 68 64 62 76 75 83 84 75 69 63 57 59 59 59 58 60 61 60
55 60 62 65 61 60 64 64 66 67 70 73 69 66 60 67 67 70 72 72 74 75 71 69 68 67 67 83 89 87 89 88 84 78 72 68 65 64 66 65 62 61 61
46 52 52 52 56 62 66 67 67 70 62 56 57 61 61 63 65 68 69 73 74 69 65 66 70 77 89 96 99 97 95 95 86 77 80 75 74 72 69 68 70 69 67
46 49 51 53 57 59 61 67 69 70 65 57 62 60 55 56 63 67 67 67 75 79 79 85 88 94 90 88 85 83 83 83 82 78 78 74 75 74 75 70 70 75 71
51 56 60 61 64 66 72 70 65 61 58 58 62 61 66 66 70 74 77 81 84 88 93 96 98 94 88 85 84 85 85 85 83 83 83 79 78 76 76 77 75 77 76
55 60 63 65 67 63 58 55 53 53 54 59 62 64 68 76 82 84 83 85 91 85 87 90 88 87 87 87 86 83 84 84 84 79 79 84 84 85 84 87 88 89 89
59 62 60 56 53 51 49 45 44 45 49 53 55 59 66 75 76 76 77 77 80 82 80 82 85 86 85 81 79 78 79 83 89 90 91 94 95 96 99 99 101 101 102
58 53 47 45 41 39 41 44 46 50 53 57 60 63 67 70 73 76 78 80 81 82 82 78 73 73 78 81 85 88 90 93 96 102 106 110 110 110 111 113 115 115 116
42 37 35 36 38 41 44 47 51 55 58 62 65 68 70 74 75 77 77 77 76 73 70 70 75 81 84 88 91 98 103 106 108 107 110 112 117 119 121 121 121 121 125
31 32 35 38 42 44 48 51 55 59 63 65 68 69 70 71 71 72 71 68 64 68 73 78 82 89 93 98 102 104 106 108 111 112 109 113 117 120 123 125 125 121 121
31 34 38 40 43 46 50 54 57 60 61 63 65 66 67 66 66 65 64 66 69 74 80 84 90 97 100 103 107 108 108 107 108 111 114 114 113 114 119 118 118 119 117
Wind_Direction
267 267 267 271 276 273 280 283 284 288 286 290 289 289 290 292 291 290 295 301 299 300 304 303 304 306 304 301 306 302 301 303 309 312 311 305 300 296 293 289 282 281 283
267 268 267 270 275 277 280 280 285 287 285 288 290 288 289 291 294 297 297 297 300 301 302 304 308 304 304 302 302 301 302 306 310 311 308 298 293 291 290 287 283 281 283
266 268 267 269 272 276 278 283 284 285 284 283 283 286 289 293 295 299 299 298 300 302 305 306 306 302 303 299 299 299 304 309 311 308 300 294 289 289 288 283 281 283 286
266 268 269 269 272 274 277 278 280 282 284 284 286 290 292 294 295 297 297 300 300 303 304 306 303 302 298 297 304 308 308 308 309 303 297 291 288 289 287 284 279 280 286
265 266 267 270 272 274 275 280 280 283 285 290 290 292 291 294 294 297 298 301 301 303 303 302 300 299 297 304 306 308 309 308 299 299 292 291 288 287 285 283 280 279 281
261 263 268 272 273 274 276 279 283 285 286 287 287 293 294 293 293 297 298 301 300 303 302 297 293 295 306 307 308 306 304 303 296 290 287 287 288 290 284 281 281 282 271
259 263 268 274 276 277 279 284 283 288 288 288 291 292 293 294 296 297 297 298 300 297 292 293 297 303 305 307 304 301 300 296 291 286 287 282 285 286 287 288 278 279 273
259 259 265 270 275 280 281 283 284 285 289 287 289 294 293 294 291 292 295 295 295 293 297 301 302 305 307 299 298 295 294 292 283 281 281 283 286 283 283 281 282 273 265
265 269 268 271 280 281 283 282 284 284 287 289 291 288 289 291 293 294 291 288 292 295 300 302 306 308 305 293 293 290 292 287 275 275 279 282 283 285 283 279 279 274 267
254 268 270 269 275 279 280 281 286 284 283 290 284 288 293 291 291 285 296 295 302 301 304 304 306 309 298 291 292 292 292 290 280 277 280 280 282 281 279 280 277 276 271
261 263 261 262 268 271 272 279 284 283 280 281 283 285 289 289 288 294 293 301 300 300 301 305 304 305 295 292 293 295 293 285 277 280 282 281 282 280 278 275 276 273 272
248 260 261 264 268 272 274 279 280 277 279 281 282 281 282 292 294 298 299 301 301 299 300 300 300 301 291 291 292 295 294 295 285 283 282 276 279 280 278 277 275 273 270
255 258 262 268 269 270 274 275 271 277 277 274 275 281 290 295 301 302 300 299 294 297 301 300 298 299 291 293 288 280 285 288 293 288 278 279 276 278 277 275 274 273 270
256 259 262 265 263 261 263 271 275 273 276 277 279 291 294 304 304 305 301 297 295 298 303 299 302 303 299 300 301 304 296 283 284 286 279 276 271 270 273 275 273 271 270
254 257 261 257 260 261 265 272 277 277 283 284 289 294 299 292 293 290 288 291 296 296 303 306 309 310 309 309 313 311 306 304 299 294 281 276 275 272 272 273 273 272 268
254 253 255 257 259 263 270 274 277 281 285 291 292 294 295 293 295 291 294 295 302 302 304 309 312 313 307 304 300 295 293 297 297 296 290 282 279 276 273 272 270 270 270
254 255 258 262 272 275 271 272 276 284 291 293 292 290 294 297 298 294 298 300 302 302 301 304 302 296 292 291 296 293 292 293 294 293 291 288 283 281 280 276 271 268 266
260 260 259 272 270 273 276 283 287 289 290 293 292 289 291 296 291 290 295 297 296 292 289 287 284 285 286 288 288 289 290 292 292 291 288 286 285 281 276 275 275 270 268
264 269 271 277 281 281 282 282 283 282 278 276 277 282 287 282 282 279 280 283 283 284 281 287 288 291 292 293 293 293 290 288 288 289 288 287 285 283 281 275 271 271 267
266 271 277 279 278 278 280 281 281 282 282 266 271 271 276 276 279 279 280 281 285 288 284 288 288 291 293 294 294 294 294 293 293 294 293 290 286 284 280 277 272 269 268
275 272 276 281 283 285 286 287 286 285 279 279 277 271 274 274 280 279 281 279 284 286 286 287 289 291 293 294 294 293 292 291 289 287 287 284 283 281 279 276 277 275 270
279 282 282 280 281 281 281 282 282 283 283 284 283 281 278 277 279 282 284 285 286 289 290 292 293 294 295 296 295 294 292 292 289 286 281 277 276 275 274 273 270 267 265
276 277 278 278 281 283 286 288 288 289 288 287 286 286 286 286 288 289 290 292 293 294 294 295 296 299 299 297 296 294 290 286 282 282 283 280 277 274 272 272 271 269 267
279 279 279 286 290 292 294 297 296 295 294 293 293 292 291 290 290 291 292 292 293 295 297 297 300 303 300 297 294 292 291 289 286 282 281 280 280 278 277 275 273 271 270
276 290 295 297 301 302 301 300 299 298 299 298 296 294 293 292 292 293 294 296 297 300 301 298 296 299 298 296 294 292 291 290 287 285 283 280 279 278 277 277 278 277 275
298 301 304 304 303 303 303 306 310 310 308 306 304 302 300 298 297 296 296 295 297 298 300 299 299 299 297 296 294 292 292 291 288 286 284 284 283 281 279 279 278 276 274
Height
10861 10862 10863 10862 10864 10863 10864 10863 10862 10861 10859 10855 10853 10850 10847 10844 10842 10838 10834 10829 10824 10821 10817 10812 10807 10801 10795 10789 10783 10776 10772 10766 10759 10749 10741 10732 10724 10720 10720 10718 10715 10713 10711
10850 10852 10853 10853 10853 10855 10855 10854 10853 10852 10849 10845 10842 10839 10837 10833 10830 10825 10822 10817 10812 10808 10805 10801 10794 10789 10781 10775 10767 10762 10756 10750 10745 10737 10730 10721 10716 10711 10709 10709 10707 10705 10704
10842 10842 10842 10842 10844 10846 10845 10844 10843 10842 10838 10834 10830 10828 10826 10821 10818 10814 10809 10804 10801 10796 10792 10786 10780 10773 10767 10760 10753 10748 10742 10736 10729 10725 10717 10713 10709 10703 10701 10701 10701 10698 10697
10834 10833 10830 10827 10834 10834 10835 10834 10834 10831 10826 10822 10819 10817 10814 10810 10808 10803 10798 10793 10788 10784 10779 10774 10767 10760 10753 10747 10741 10733 10727 10721 10716 10713 10708 10707 10698 10697 10695 10693 10693 10692 10691
10825 10824 10816 10817 10822 10823 10824 10825 10822 10820 10814 10811 10808 10805 10802 10799 10795 10791 10786 10781 10776 10772 10767 10761 10754 10746 10741 10734 10727 10721 10713 10709 10704 10700 10700 10697 10693 10691 10689 10687 10686 10685 10685
10817 10817 10808 10806 10811 10814 10814 10813 10812 10807 10804 10801 10797 10794 10791 10787 10781 10778 10774 10769 10765 10759 10752 10748 10741 10736 10729 10723 10714 10709 10703 10698 10696 10691 10692 10687 10688 10684 10683 10681 10680 10680 10680
10809 10803 10801 10799 10800 10802 10804 10801 10799 10797 10792 10790 10786 10781 10778 10773 10770 10764 10761 10756 10751 10746 10739 10736 10732 10724 10719 10711 10703 10697 10693 10689 10688 10683 10683 10680 10681 10679 10678 10676 10675 10675 10675
10797 10794 10792 10790 10791 10792 10792 10791 10788 10786 10782 10777 10773 10769 10765 10762 10757 10751 10748 10742 10738 10734 10729 10725 10720 10713 10707 10700 10693 10687 10682 10680 10679 10677 10677 10672 10674 10673 10672 10671 10669 10669 10670
10789 10784 10783 10784 10784 10781 10782 10780 10778 10774 10771 10764 10762 10758 10754 10750 10745 10739 10733 10730 10725 10719 10714 10710 10707 10702 10695 10689 10683 10678 10673 10671 10669 10669 10668 10668 10667 10666 10665 10664 10664 10664 10664
10779 10775 10774 10776 10774 10770 10770 10770 10767 10762 10758 10755 10752 10747 10742 10737 10731 10726 10721 10714 10709 10703 10699 10696 10695 10689 10685 10679 10674 10670 10666 10664 10663 10662 10661 10660 10658 10657 10656 10656 10657 10657 10656
10765 10764 10766 10767 10765 10765 10761 10761 10756 10751 10748 10744 10738 10734 10728 10725 10716 10710 10705 10699 10696 10690 10686 10683 10680 10678 10673 10669 10665 10662 10659 10655 10653 10652 10653 10651 10650 10648 10647 10646 10647 10647 10648
10752 10755 10755 10755 10755 10754 10752 10749 10746 10741 10738 10732 10727 10721 10715 10707 10702 10697 10689 10684 10678 10677 10674 10671 10667 10665 10662 10660 10656 10652 10650 10648 10646 10644 10646 10642 10640 10638 10637 10636 10636 10637 10637
10746 10746 10745 10744 10743 10743 10741 10738 10734 10731 10726 10719 10713 10707 10699 10694 10690 10682 10674 10670 10666 10665 10662 10660 10655 10651 10649 10646 10646 10643 10639 10636 10635 10635 10636 10630 10630 10627 10625 10624 10624 10624 10625
10738 10737 10736 10735 10734 10731 10729 10727 10723 10720 10714 10708 10699 10692 10688 10681 10676 10669 10658 10655 10651 10651 10649 10646 10642 10638 10635 10633 10627 10625 10623 10621 10618 10618 10621 10617 10614 10612 10611 10610 10610 10612 10612
10728 10728 10726 10725 10723 10721 10720 10717 10711 10705 10701 10696 10685 10681 10674 10672 10669 10664 10655 10645 10638 10637 10633 10628 10623 10620 10615 10614 10610 10607 10606 10607 10604 10601 10602 10602 10599 10598 10597 10597 10595 10595 10597
10717 10715 10713 10713 10713 10712 10708 10701 10697 10694 10689 10679 10671 10666 10658 10651 10653 10649 10643 10634 10628 10621 10616 10611 10607 10604 10603 10602 10601 10602 10597 10593 10589 10587 10585 10586 10584 10583 10582 10581 10580 10579 10579
10704 10703 10702 10704 10703 10698 10693 10690 10688 10682 10674 10664 10652 10651 10647 10640 10636 10632 10627 10619 10614 10608 10604 10599 10597 10596 10590 10591 10587 10583 10579 10574 10570 10569 10568 10566 10567 10567 10564 10562 10562 10561 10562
10694 10692 10692 10691 10690 10686 10680 10677 10675 10669 10659 10653 10644 10638 10636 10630 10624 10620 10613 10607 10603 10601 10597 10594 10589 10584 10578 10573 10568 10563 10558 10554 10551 10548 10547 10546 10542 10543 10545 10543 10539 10540 10543
10684 10684 10684 10680 10676 10672 10669 10665 10663 10656 10646 10641 10634 10629 10624 10619 10612 10608 10602 10597 10593 10588 10584 10579 10574 10569 10563 10554 10550 10545 10540 10535 10531 10528 10524 10527 10522 10520 10515 10523 10521 10512 10520
10676 10674 10670 10668 10665 10662 10658 10652 10649 10641 10633 10628 10621 10615 10610 10605 10601 10595 10590 10584 10576 10574 10567 10563 10556 10549 10542 10537 10531 10523 10516 10511 10508 10505 10500 10499 10496 10497 10495 10492 10496 10493 10493
10666 10664 10658 10656 10653 10648 10643 10639 10636 10632 10625 10618 10613 10607 10602 10595 10586 10581 10579 10571 10561 10558 10553 10546 10540 10532 10524 10517 10513 10509 10501 10495 10488 10489 10485 10475 10473 10469 10469 10464 10462 10461 10461
10656 10654 10650 10647 10642 10638 10634 10629 10625 10620 10616 10610 10603 10597 10591 10585 10577 10570 10560 10556 10550 10540 10536 10529 10521 10513 10505 10498 10493 10490 10486 10476 10464 10459 10459 10451 10448 10442 10436 10434 10432 10434 10432
10645 10643 10641 10636 10632 10628 10624 10619 10614 10609 10604 10597 10591 10584 10576 10568 10560 10553 10546 10537 10530 10524 10516 10510 10503 10495 10487 10479 10470 10463 10458 10452 10444 10430 10419 10412 10411 10410 10405 10399 10390 10388 10387
10635 10632 10629 10626 10622 10618 10614 10609 10602 10596 10591 10583 10576 10568 10562 10551 10545 10537 10530 10523 10516 10508 10501 10494 10485 10477 10468 10459 10448 10435 10423 10415 10408 10405 10392 10381 10364 10361 10354 10350 10347 10346 10341
10627 10624 10621 10617 10613 10608 10603 10597 10591 10584 10576 10569 10561 10553 10545 10538 10531 10522 10514 10508 10500 10493 10485 10477 10468 10457 10444 10432 10418 10405 10393 10381 10369 10359 10359 10345 10335 10325 10309 10299 10294 10294 10293
10619 10616 10613 10608 10604 10599 10593 10587 10579 10571 10563 10555 10546 10538 10530 10523 10516 10509 10501 10493 10484 10477 10467 10457 10446 10433 10419 10404 10389 10375 10363 10349 10335 10322 10309 10304 10295 10290 10271 10262 10257 10253 10251